THORAD DELTA 1 DEB, 8151

Orbit data source: Space-Track

THORAD DELTA 1 DEB, 8151 is space debris in SSO originally from a launch on Fri, 15 Nov 1974 UTC launched from the Air Force Western Test Range (AFWTR). Debris objects in space refer to the collection of defunct objects orbiting the Earth. Examples of debris include non-operational satellites, rocket bodies, and fragments generated from explosions, collisions, or faulty payload assembly.

Loading next visibility...
Identifier
8151, 1974-089R
Orbit
SSO
Country
Flag of USUS
Related business
Manufacturer
Unknown
Mission
Spacecraft
Bus & Motor
Unknown
Mass
Unknown
Launch date (UTC)
1974-11-15 (51 years ago)
Launch vehicle
Unknown
Launch site
Air Force Western Test Range (AFWTR)
Object type
Payload
Rocket body
Debris
Shape & HBR
Unknown shape, 0.2 m
Radar Cross Section
Small (<0.1 m²)

Expand to show TLE details & history
Last TLE update: 14 hours ago

TLE from 14 hours ago
0 THORAD DELTA 1 DEB
1 08151U 74089R   25300.85726721  .00000130  00000-0  60412-3 0  9991
2 08151 101.7724  41.4385 0337227 158.2200 330.3807 12.81249414379038
Epoch: 2025-10-27T20:34Z
TLE epoch observation values (Epoch: 2025-10-27T20:34:27.886Z)
Latitude
51.88855°
Longitude
-108.3044°
Altitude
1,120.678 km
Speed
7.402 km/s
True Right ascension
15h 47m 03s
True Declination
51° 43' 46"
Sunlit
Object was in daylight at epoch
Visualization orbit readout
Latitude
Unknown
Longitude
Unknown
Altitude
Unknown
Speed
Unknown
Apparent Right ascension
Unknown
Apparent Declination
Unknown
Sunlit
N/A
Visualization observer readout
Local Sidereal Time
05:55:01
Azimuth
Unknown
Elevation
Unknown
Doppler factor
Unknown
Orbital elements
Apogee altitude
1,594.026 km
Perigee altitude
1,073.881 km
Semi-major axis
7,712.091 km
Eccentricity
0.03372
Inclination
101.7724°
RAAN
41.4385°
Arg. of periapsis
158.22°
True anomaly
328.39867°
Mean anomaly
330.3807°
Eccentric anomaly
329.39706°
Mean motion
3.20468 °/min
Orbital period
112.34 mins
BSTAR
0.00060412
Loading maneuver chart data...
Computing Atmospheric mass density...

Documentation

Showing up to 5 results
|